CZ-6A DEB

Satellite information

Favourite Embed

Satellite Type and Status

DEBRISIN ORBIT

Key statistics

Satellite CZ-6A DEB at a glance.

Uptime

970

Days in orbit

Revolutions

≈ 13.7

Per day

Orbit

SSO

Sun Synchronous Orbit

Inclination

98.8

Latest

Satellite identification and parameters

Extended collection of information and parameters for CZ-6A DEB.

Object identification

Identified? True

Debris? True

Object name: CZ-6A DEB

International designator: 2022-151GE

Object number (NORAD): 54454

Object ID (CCSDS): 54454

Country: PEOPLES REPUBLIC OF CHINA (PRC)

Current information (Y/N): Y

RCS size: SMALL

Orbital parameters

Period: 104.872 minutes

Inclination: 98.8333 deg

SMA: 7366.598 km

Apoapsis: 1164.293 km

Periapsis: 812.632 km

RAAN: 126.468 deg

Eccentricy: 0.0238686

Argument of periapsis: 46.2999 deg

Mean anomaly: 315.7656 deg

Mean motion: 13.7310051 rev/day

Mean motion (dot): 0.00002179 rev/day2

B* drag term: 0.0019539 1/REarth

Two-line elements (TLE)

Creation date: July 6, 2025, 11:06 p.m.

Reference frame: TEME

Reference center: EARTH

Epoch: July 6, 2025, 7:21 p.m. UTC

TLE line 0: 0 CZ-6A DEB

TLE line 1: 1 54454U 22151GE 25187.80637355 .00002179 00000-0 19539-2 0 9991

TLE line 2: 2 54454 98.8333 126.4680 0238686 46.2999 315.7656 13.73100510132119

Live tracking on map

Real-time ground track for satellite CZ-6A DEB.

In-orbit conjunctions

A list of the most updated potential collisions computed for object CZ-6A DEB.

Target Orbit TCA Probability of collision Miss distance Type
FENGYUN 1C DEB SSO 2024-11-15 15:46:38 0.0001496023 612.0 (m) DEBRIS

Associated space launch

Chinese satellite reported for atmospheric/ocean/environmental/spatial parameter research purposes, details TBD.

CZ-6A DEB was lifted into orbit during the mission ‘Long March 6A | Yunhai 3’, on board a Long March 6A space rocket.

The launch took place on Nov. 11, 2022, 10:52 p.m. from Launch Complex 9A.

For more information about the launch, click the button.

Launch to space Long March 6A | Yunhai 3
Long March 6A | Yunhai 3

Agency: N/A

Status: Launch Successful

Launch date: Nov. 11, 2022, 10:52 p.m. UTC

Rocket: Long March 6A

Launch pad: Launch Complex 9A

Location: Taiyuan Satellite Launch Center, People's Republic of China

...

Latest news about this satellite

There are no fresh news available about this satellite. Check back as we update our databases every day.


Newsletter sign-up

Weekly statistics, charts and insights to help you stay on top of the space industry.